Regional Weather Roundup
Issued by NWS

Home | Current Version | Previous Version | Graphics & Text | Print | Product List | Glossary On
Versions: 1 2 3 4 5 6 7 8 9 10 11 12 13 14 15 16 17 18 19 20 21 22 23 24 25 26 27 28 29 30 31 32 33 34 35 36 37 38 39 40 41 42 43 44 45 46 47 48 49 50
000
ASUS44 KMEG 202010
RWRTN
TENNESSEE HOURLY STATE WEATHER ROUNDUP
NATIONAL WEATHER SERVICE MEMPHIS TN
200 PM CST FRI JAN 20 2017

TNZ002-004-019-021-049-052-054-088>092-202100-
WEST TENNESSEE

CITY           SKY/WX    TMP DP  RH WIND       PRES   REMARKS
MEMPHIS INTL   PTSUNNY   66  55  67 S18G26    29.66F
NWS MEMPHIS      N/A     64 N/A N/A MISG        N/A
JACKSON        PTSUNNY   63  55  75 S9G20     29.67F
DYERSBURG      CLOUDY    63  54  72 SW12G17   29.65F
UNION CITY     CLOUDY    61  61 100 S14       29.65F
PARIS          CLOUDY    59  54  82 S9        29.69R
HUNTINGDON     CLOUDY    63  55  77 S13       29.68S
$$

TNZ008-025-027-028-033-062-065-066-202100-
NORTH MIDDLE TENNESSEE

CITY           SKY/WX    TMP DP  RH WIND       PRES   REMARKS
NASHVILLE      PTSUNNY   69  52  54 S16G22    29.72F
PORTLAND       PTSUNNY   64  54  68 SW7G15    29.72F
CLARKSVILLE    PTSUNNY   63  54  72 S13       29.69F
SMYRNA         PTSUNNY   67  54  63 S9        29.74F
GALLATIN       CLOUDY    66  54  63 VRB7      29.75F
CROSSVILLE     PTSUNNY   61  48  62 SW7       29.79F
$$

TNZ061-075-076-078-094-096-097-202100-
SOUTH MIDDLE TENNESSEE

CITY           SKY/WX    TMP DP  RH WIND       PRES   REMARKS
TULLAHOMA      MOSUNNY   64  52  63 S13       29.77F
WINCHESTER     PTSUNNY   66  52  59 SW9       29.77F
MCMINNVILLE    PTSUNNY   68  54  60 SW12      29.76F
COLUMBIA       MOSUNNY   66  63  88 SW15      29.71F
SHELBYVILLE    PTSUNNY   68  55  64 S10       29.76F
$$

TNZ017-018-042-046-047-202100-
NORTHEAST TENNESSEE

CITY           SKY/WX    TMP DP  RH WIND       PRES   REMARKS
TRI CITIES     MOSUNNY   65  52  62 SW14G21   29.80F
ELIZABETHTON   DRIZZLE   63  52  67 W9        29.80S
$$

TNZ012-013-036-069-073-074-202100-
CENTRAL EAST TENNESSEE

CITY           SKY/WX    TMP DP  RH WIND       PRES   REMARKS
KNOXVILLE      PTSUNNY   68  52  56 SW14      29.77F
OAK RIDGE      MOSUNNY   68  51  54 SW9G20    29.78F
GATLINBURG     MOSUNNY   68  48  49 W7        29.78S
MORRISTOWN     CLOUDY    66  50  55 W10       29.78S
JACKSBORO      PTSUNNY   66  50  55 CALM      29.80F
$$

TNZ083-085-099-202100-
SOUTHEAST TENNESSEE

CITY           SKY/WX    TMP DP  RH WIND       PRES   REMARKS
CHATTANOOGA    PTSUNNY   70  52  52 S6        29.78F
$$

SKY/WX REPORTED AS FAIR MEANS FEW OR NO CLOUDS BELOW
12 THOUSAND FEET.





USA.gov is the U.S. government's official web portal to all federal, state and local government web resources and services.